TimeCDT,TemperatureF,Dew PointF,Humidity,Sea Level PressureIn,VisibilityMPH,Wind Direction,Wind SpeedMPH,Gust SpeedMPH,PrecipitationIn,Events,Conditions,WindDirDegrees,DateUTC
12:52 AM,79.0,60.1,52,29.93,10.0,SSE,15.0,-,N/A,,Scattered Clouds,150,2013-07-13 05:52:00
1:52 AM,73.9,64.0,71,29.95,9.0,SSE,13.8,-,0.03,Rain,Light Rain,150,2013-07-13 06:52:00
2:52 AM,73.0,64.9,76,29.94,10.0,SE,11.5,-,0.03,,Mostly Cloudy,130,2013-07-13 07:52:00
3:52 AM,73.0,63.0,71,29.93,10.0,SSE,12.7,-,N/A,,Scattered Clouds,150,2013-07-13 08:52:00
4:52 AM,73.9,61.0,64,29.94,10.0,SSE,12.7,-,N/A,,Scattered Clouds,150,2013-07-13 09:52:00
5:52 AM,73.9,61.0,64,29.94,10.0,SSE,13.8,-,N/A,,Overcast,150,2013-07-13 10:52:00
6:52 AM,73.0,60.1,64,29.95,10.0,SSE,13.8,-,N/A,,Mostly Cloudy,150,2013-07-13 11:52:00
7:52 AM,73.9,61.0,64,29.95,10.0,SSE,12.7,-,N/A,,Mostly Cloudy,150,2013-07-13 12:52:00
8:52 AM,77.0,61.0,58,29.95,10.0,SSE,16.1,-,N/A,,Mostly Cloudy,160,2013-07-13 13:52:00
9:52 AM,78.1,63.0,60,29.96,10.0,South,16.1,-,N/A,,Mostly Cloudy,170,2013-07-13 14:52:00
10:52 AM,78.1,63.0,60,29.95,10.0,SSE,17.3,-,N/A,,Mostly Cloudy,160,2013-07-13 15:52:00
11:52 AM,81.0,64.9,58,29.94,10.0,SSE,17.3,21.9,N/A,,Mostly Cloudy,160,2013-07-13 16:52:00
12:52 PM,82.9,66.0,56,29.94,10.0,SSE,18.4,-,N/A,,Mostly Cloudy,150,2013-07-13 17:52:00
1:52 PM,87.1,68.0,53,29.93,10.0,SSE,17.3,24.2,N/A,,Mostly Cloudy,150,2013-07-13 18:52:00
2:52 PM,88.0,69.1,53,29.92,10.0,SE,18.4,-,N/A,,Mostly Cloudy,140,2013-07-13 19:52:00
3:52 PM,88.0,70.0,55,29.91,10.0,SSE,13.8,-,N/A,,Mostly Cloudy,160,2013-07-13 20:52:00
4:52 PM,86.0,71.1,61,29.91,10.0,SE,19.6,-,N/A,,Mostly Cloudy,140,2013-07-13 21:52:00
5:52 PM,86.0,72.0,63,29.91,10.0,SE,17.3,-,N/A,,Mostly Cloudy,140,2013-07-13 22:52:00
6:52 PM,87.1,71.1,59,29.90,10.0,SSE,18.4,-,N/A,,Mostly Cloudy,150,2013-07-13 23:52:00
7:52 PM,84.0,72.0,67,29.91,10.0,SSE,16.1,23.0,N/A,,Mostly Cloudy,150,2013-07-14 00:52:00
8:52 PM,82.9,70.0,65,29.92,10.0,SE,19.6,27.6,N/A,,Mostly Cloudy,130,2013-07-14 01:52:00
9:52 PM,81.0,66.9,62,29.93,10.0,SE,21.9,27.6,N/A,,Mostly Cloudy,140,2013-07-14 02:52:00
10:52 PM,79.0,66.0,64,29.95,10.0,SSE,18.4,25.3,N/A,,Overcast,150,2013-07-14 03:52:00
11:52 PM,77.0,64.9,66,29.96,10.0,SSE,19.6,25.3,N/A,,Overcast,150,2013-07-14 04:52:00